Briseno, Mexico

4:49 AM CST on February 23, 2017 (GMT -0600)
Gen Leobardo C Ruiz International

Weather History for MMZC - February, 2013

Change the Weather History Date:

Saturday, February 2, 2013

  Actual Average Record
Temperature  
Mean Temperature 55 °F -  
Max Temperature 73 °F 66 °F 78 °F (1999)
Min Temperature 37 °F 35 °F 26 °F (1998)
Degree Days  
Heating Degree Days 10    
Growing Degree Days 5 (Base 50)    
Moisture  
Dew Point 20 °F    
Average Humidity 30    
Maximum Humidity 56    
Minimum Humidity 12    
Precipitation  
Precipitation 0.00 in - - ()
Sea Level Pressure  
Sea Level Pressure 30.34 in    
Wind  
Wind Speed 3 mph ()    
Max Wind Speed 9 mph    
Max Gust Speed -    
Visibility 10.0 miles    
Events      
Averages and records for this station are not official NWS values.
T = Trace of Precipitation, MM = Missing Value Source: Averaged Metar Reports

Daily Weather History Graph

Daily Weather History Graph

Search for Another Location

Airport or City:

Trip Planner

Search our weather history database for the weather conditions in past years. The results will help you decide how hot, cold, wet, or windy it might be!

Date:

Astronomy

Feb. 02, 2013 Rise Set
Actual Time 7:29 AM CST 6:39 PM CST
Civil Twilight 7:06 AM CST 7:02 PM CST
Nautical Twilight 6:39 AM CST 7:29 PM CST
Astronomical Twilight 6:12 AM CST 7:56 PM CST
Moon No Moon Rise 11:35 AM CST (2/2)
Length of Visible Light 11h 56m
Length of Day
11h 09m
Waning Gibbous, 59% of the Moon is Illuminated
Feb 2
Waning Gibbous
Feb 3
Last Quarter
Feb 10
New
Feb 17
First Quarter
Feb 25
Full

Hourly Weather History & Observations

Time (CST) Temp. Windchill Dew Point Humidity Pressure Visibility Wind Dir Wind Speed Gust Speed Precip Events Conditions
12:41 AM 46.4 °F 44.3 °F 23.0 °F 40% 30.36 in 10.0 mi SSE 4.6 mph - N/A   Scattered Clouds
1:41 AM 42.8 °F - 21.2 °F 42% 30.36 in 10.0 mi Calm Calm - N/A   Scattered Clouds
2:42 AM 39.2 °F - 21.2 °F 49% 30.34 in 10.0 mi Calm Calm - N/A   Scattered Clouds
3:42 AM 42.8 °F 39.3 °F 23.0 °F 46% 30.33 in 10.0 mi South 5.8 mph - N/A   Scattered Clouds
4:42 AM 41.0 °F - 23.0 °F 49% 30.33 in 10.0 mi Calm Calm - N/A   Scattered Clouds
5:42 AM 39.2 °F 35.9 °F 23.0 °F 52% 30.34 in 10.0 mi SSW 4.6 mph - N/A   Scattered Clouds
7:13 AM 37.4 °F - 23.0 °F 56% 30.36 in 10.0 mi Calm Calm - N/A   Mostly Cloudy
7:42 AM 37.4 °F - 23.0 °F 56% 30.37 in 10.0 mi Calm Calm - N/A   Mostly Cloudy
8:42 AM 44.6 °F - 26.6 °F 49% 30.38 in 10.0 mi Calm Calm - N/A   Mostly Cloudy
9:42 AM 55.4 °F - 26.6 °F 33% 30.39 in 10.0 mi Calm Calm - N/A   Mostly Cloudy
10:42 AM 64.4 °F - 28.4 °F 26% 30.40 in 10.0 mi Calm Calm - N/A   Mostly Cloudy
11:42 AM 69.8 °F - 19.4 °F 15% 30.38 in 10.0 mi NE 9.2 mph - N/A   Mostly Cloudy
12:42 PM 73.4 °F - 17.6 °F 12% 30.36 in 10.0 mi ENE 8.1 mph - N/A   Mostly Cloudy
1:43 PM 73.4 °F - 17.6 °F 12% 30.32 in 10.0 mi NE 6.9 mph - N/A   Scattered Clouds
2:40 PM 73.4 °F - 17.6 °F 12% 30.29 in 10.0 mi East 5.8 mph - N/A   Mostly Cloudy
3:40 PM 73.4 °F - 19.4 °F 13% 30.28 in 10.0 mi East 5.8 mph - N/A   Scattered Clouds
4:44 PM 73.4 °F - 19.4 °F 13% 30.28 in 10.0 mi NE 5.8 mph - N/A   Scattered Clouds
5:42 PM 71.6 °F - 19.4 °F 14% 30.28 in 10.0 mi East 8.1 mph - N/A   Mostly Cloudy
6:40 PM 66.2 °F - 19.4 °F 17% 30.29 in 10.0 mi ENE 8.1 mph - N/A   Scattered Clouds
7:44 PM 60.8 °F - 17.6 °F 19% 30.31 in 10.0 mi ENE 8.1 mph - N/A   Partly Cloudy
8:40 PM 57.2 °F - 15.8 °F 20% 30.33 in 10.0 mi ENE 8.1 mph - N/A   Partly Cloudy
9:46 PM 53.6 °F - 14.0 °F 21% 30.35 in 10.0 mi NE 8.1 mph - N/A   Partly Cloudy
10:50 PM 48.2 °F - 15.8 °F 27% 30.36 in 10.0 mi NNE 8.1 mph - N/A   Clear
11:45 PM 46.4 °F 44.3 °F 14.0 °F 27% 30.37 in 10.0 mi NNE 4.6 mph - N/A   Clear